Regional Weather Roundup
Issued by NWS

Home | Current Version | Previous Version | Text Only | Print | Product List | Glossary Off
Versions: 1 2 3 4 5 6 7 8 9 10 11 12 13 14 15 16 17 18 19 20 21 22 23 24 25 26 27 28 29 30 31 32 33 34 35 36 37 38 39 40 41 42 43 44 45 46 47 48 49 50

000
ASUS45 KBOU 261707
RWRCO

WEATHER ROUNDUP FOR COLORADO
NATIONAL WEATHER SERVICE DENVER/BOULDER CO
1100 AM MDT FRI MAY 26 2017

NOTE: "FAIR" INDICATES FEW OR NO CLOUDS BELOW 12000 FEET WITH NO
SIGNIFICANT WEATHER AND/OR OBSTRUCTIONS TO VISIBILITY.

COZ001>005-013-030-031-261800-
...NORTHWEST COLORADO...

CITY           SKY/WX    TMP DP  RH WIND       PRES   REMARKS
CRAIG          FAIR      65  43  44 N8        29.85F
HAYDEN         FAIR      61  41  48 E10       29.87F
MEEKER         FAIR      68  33  27 S26G38    29.85F
RABBIT EARS PA PTSUNNY   43  34  70 S7G20     30.08S
STEAMBOAT SPGS PTSUNNY   60  43  54 S3        29.88F
WALDEN           N/A     55  36  47 S10G21    29.98F
$$

COZ006>008-011-261800-
...WEST CENTRAL VALLEYS...

CITY           SKY/WX    TMP DP  RH WIND       PRES   REMARKS
GRAND JUNCTION FAIR      75  33  21 SE18G28   29.81F
MONTROSE       FAIR      71  23  16 W10       29.93F
EAGLE          MOSUNNY   64  37  36 VRB7      29.94F
RIFLE          FAIR      69  38  32 W9        29.86F
DELTA          FAIR      71  33  24 CALM      29.90F
NUCLA          FAIR      70  19  14 S17G31    29.98R
$$

COZ017>023-064>068-261800-
...SOUTHWEST COLORADO...

CITY           SKY/WX    TMP DP  RH WIND       PRES   REMARKS
DURANGO        FAIR      66  21  18 SE3       30.04F
CORTEZ         FAIR      70  20  15 S9        29.99S
PAGOSA SPRINGS FAIR      61  12  14 S13       30.10S
TELLURIDE      FAIR      56  21  25 S12       30.12S
WOLF CREEK PAS FAIR      37  18  44 S26G35    30.29S
$$

COZ009-010-012-014-032>034-037-058>063-261800-
...CENTRAL COLORADO...

CITY           SKY/WX    TMP DP  RH WIND       PRES   REMARKS
ASPEN          FAIR      61  26  26 S14G32    30.00S
BUENA VISTA    FAIR      61  33  35 SE5       30.02F
COPPER MTN     FAIR      41  25  52 SW15G23   30.21F
BERTHOUD PASS  FAIR      36  27  69 W21G36    30.20S
COTTONWOOD PAS PTSUNNY   55  36  47 SE5       30.12F
GUNNISON       FAIR      57  37  47 VRB6      30.05
KREMMLING      FAIR      61  43  51 CALM      29.98F
LEADVILLE      PTSUNNY   50  27  40 S20G25    30.09F
MONARCH PASS   FAIR      41  27  56 SW20G33   30.33S
SALIDA         PTSUNNY   64  31  29 E6        30.08F
SUNLIGHT       FAIR      45  32  61 S12G23    30.15F
WILKERSON PASS PTSUNNY   45  32  61 SW5       30.22F
$$

COZ069>075-261800-
...SAN LUIS VALLEY/SANGRE DE CRISTO MOUNTAINS...

CITY           SKY/WX    TMP DP  RH WIND       PRES   REMARKS
ALAMOSA        FAIR      66  17  15 S14G22    30.04F
DEL NORTE      FAIR      62  28  26 E6G16     30.07S
LA VETA PASS   FAIR      54  19  26 MISG      30.29S
SAGUACHE       FAIR      61  32  33 S12       30.07F
$$

COZ035-036-038>040-261800-
...NORTHERN COLORADO FRONT RANGE...

CITY           SKY/WX    TMP DP  RH WIND       PRES   REMARKS
DENVER INTL AP PTSUNNY   58  46  64 SE8       29.95F
DMNS CITY PARK   N/A     61  47  60 NE16      29.93F
AURORA         MOSUNNY   58  48  71 E7        29.96F
FRONT RANGE AP PTSUNNY   59  48  67 E10       29.97F
ERIE MUNI ARPT FAIR      56  44  64 NE5       29.96F
BOULDER MUN AP CLOUDY    52  45  76 CALM      29.96F
CENTENNIAL     FAIR      60  48  64 E7        29.95F
BROOMFIELD     PTSUNNY   55  46  71 E6        29.97F
FORT COLLINS   PTSUNNY   56  42  59 SE7       29.97F
LONGMONT       CLOUDY    57  44  61 CALM      29.97F
$$

COZ041-046-047-076>085-087-088-261800-
...PIKES PEAK/PALMER DIVIDE AND SOUTHERN FOOTHILLS...

CITY           SKY/WX    TMP DP  RH WIND       PRES   REMARKS
COLO. SPRINGS  FAIR      62  48  60 S12       30.00F
A. F. ACADEMY  FAIR      61  46  57 S16G23    29.98F
SCHRIEVER AFB  FAIR      59  47  62 S13       30.01F
CHEYENNE MTN   FAIR      59  43  54 SE21      29.95
ELLICOTT       FAIR     N/A N/A N/A VRB7      30.00F
FALCON         FAIR      59  46  62 S17G23    30.03F
FORT CARSON    FAIR      63  47  56 S14       29.98F
LIMON          FAIR      60  48  64 CALM      29.98F
MONUMENT HILL  FAIR      59  43  55 S20       30.01F
CANON CITY     NOT AVBL
WALSENBURG     FAIR      68  50  52 SE12G17   29.98F
TRINIDAD       FAIR      67  47  48 E13       29.98F
$$

COZ042>045-048>051-090-091-261800-
...NORTHEAST COLORADO...

CITY           SKY/WX    TMP DP  RH WIND       PRES   REMARKS
GREELEY ARPT   FAIR      58  44  60 VRB3      29.97F
AKRON          FAIR      58  44  60 E7        29.97F
BURLINGTON     FAIR      62  51  67 NE8       29.97S
WRAY           FAIR      63  45  51 E8        29.96F
YUMA           FAIR      59  34  38 E7        29.96F
STERLING       FAIR      59  43  55 SE3       29.95F
HOLYOKE        NOT AVBL
FORT MORGAN    FAIR      58  43  56 SE5       29.97S
$$

COZ086-089-092>099-261800-
...SOUTHEAST COLORADO...

CITY           SKY/WX    TMP DP  RH WIND       PRES   REMARKS
PUEBLO         FAIR      66  49  54 VRB6      29.94F
LA JUNTA       FAIR      68  47  46 S5        29.95F
LAMAR          FAIR      72  49  44 W7        29.91F
SPRINGFIELD      N/A     71  45  39 VRB5      29.96S
$$



USA.gov is the U.S. government's official web portal to all federal, state and local government web resources and services.